Regional Weather Roundup
Issued by NWS

Home | Current Version | Previous Version | Graphics & Text | Print | Product List | Glossary On
Versions: 1 2 3 4 5 6 7 8 9 10 11 12 13 14 15 16 17 18 19 20 21 22 23 24 25 26 27 28
000
ASUS45 KCYS 161110
RWRWY

WYOMING REGIONAL WEATHER ROUNDUP
NATIONAL WEATHER SERVICE CHEYENNE WY
500 AM MDT WED APR 16 2014

NOTE:  "FAIR" INDICATES FEW OR NO CLOUDS BELOW 12,000 FEET
WITH NO SIGNIFICANT WEATHER AND/OR OBSTRUCTIONS TO VISIBILITY.

WYZ001-161200-
YELLOWSTONE NATIONAL PARK

CITY           SKY/WX    TMP DP  RH WIND       PRES   REMARKS
LK YELLOWSTONE NOT AVBL
W YELLOWSTONE  NOT AVBL

$$
WYZ002>013-054>058-071-098>099-161200-
NORTHERN WYOMING

CITY           SKY/WX    TMP DP  RH WIND       PRES   REMARKS
JACKSON        CLEAR     19  19 100 N5        29.96S WCI  13
CODY           MOCLDY    30  25  80 N3        29.89S
GREYBULL       MOCLDY    37  31  78 NW23      29.89R WCI  26
WORLAND        CLOUDY    36  30  79 NW6       29.90R WCI  31
SHERIDAN       CLOUDY    37  32  82 NW18      29.87R WCI  27
BUFFALO        MOCLDY    34  29  82 NW24G31   29.85R WCI  21
GILLETTE       MOCLDY    35  32  88 NW26G33   29.79R WCI  22
HULETT         DRIZZLE   37  34  87 NW10G18   29.76  WCI  30
NEWCASTLE      LGT SNOW  32  32 100 NW13      29.75  WCI  22

$$
WYZ014>020-022>026-101>103-161200-
CENTRAL WYOMING

CITY           SKY/WX    TMP DP  RH WIND       PRES   REMARKS
BIG PINEY      CLEAR     19  11  70 NW9       29.95R WCI   8
PINEDALE       MOSUNNY   19  14  79 E5        29.93S WCI  13
DUBOIS         FAIR      25  14  63 W21       29.90S WCI  10
LANDER         PTCLDY    32  25  75 CALM      29.89R
RIVERTON       CLOUDY    31  28  89 E5        29.91R WCI  26
CASPER         MOCLDY    31  27  85 W9        29.85R WCI  23
DOUGLAS        CLOUDY    36  31  82 NW20G29   29.83R WCI  25

$$
WYZ021-027>030-104>119-161200-
SOUTHERN WYOMING

CITY           SKY/WX    TMP DP  RH WIND       PRES   REMARKS
EVANSTON       CLOUDY    28  14  55 SW8       29.97S WCI  20
FORT BRIDGER   FAIR      29  13  51 W7        29.99F WCI  22
ROCK SPRINGS   CLEAR     28  16  60 W13       29.93S WCI  17
DIXON          PTSUNNY   31  25  78 N7        29.95S WCI  24
RAWLINS        CLOUDY    31  23  72 NW6       29.89R WCI  25
SARATOGA       CLOUDY    30  28  93 W7        29.89S WCI  23
LARAMIE        NOT AVBL
CHEYENNE       PTCLDY    35  25  66 NW24G33   29.78R WCI  23
TORRINGTON     MOCLDY    40  32  73 NW22G31   29.77R WCI  30
PINE BLUFFS    FAIR      32  30  93 NW10      29.79R WCI  24

$$



USA.gov is the U.S. government's official web portal to all federal, state and local government web resources and services.